1521810000.29,62149,11.5,71862.3,5.23,-28.31,-27.07,0,*7B
1521810001.55,62150,11.5,71866.0,5.25,-28.59,-27.19,0,*74
1521810002.8,62151,11.5,71864.5,5.25,-28.21,-26.93,0,*79
1521810004.03,62152,11.5,71864.3,5.31,-28.53,-27.29,0,*7A
1521810005.29,62153,11.5,71866.8,5.29,-28.21,-26.97,0,*73
1521810006.51,62154,11.5,71866.8,5.29,-28.21,-26.87,0,*75
1521810007.73,62155,11.5,71862.3,5.29,-28.47,-27.13,0,*78
1521810008.96,62156,11.5,71860.8,5.31,-28.53,-27.03,0,*76
1521810010.18,62157,11.5,71866.8,5.31,-28.31,-27.13,0,*72
1521810011.38,62158,11.5,71866.0,5.33,-27.77,-26.23,0,*70
1521810012.58,62159,11.5,71866.0,5.33,-27.51,-26.23,0,*75
1521810013.86,62160,11.5,71864.3,5.35,-27.45,-25.97,0,*70
1521810015.12,62161,11.5,71864.0,5.35,-27.61,-26.23,0,*7B
1521810016.41,62162,11.5,71864.3,5.35,-27.61,-26.13,0,*7B
1521810017.63,62163,11.5,71864.5,5.37,-27.35,-25.91,0,*70
1521810018.87,62164,11.5,71860.5,5.41,-27.19,-25.81,0,*79
1521810020.11,62165,11.5,71860.3,5.41,-27.35,-25.81,0,*76
1521810021.37,62166,11.5,71864.0,5.41,-28.05,-26.81,0,*7A
1521810022.59,62167,11.5,71866.5,5.43,-27.29,-25.91,0,*7A
1521810023.84,62168,11.5,71866.0,5.43,-27.35,-25.91,0,*78
1521810025.12,62169,11.5,71866.0,5.43,-27.99,-26.77,0,*74
1521810026.39,62170,11.5,71864.0,5.43,-29.01,-27.83,0,*79
1521810027.62,62171,11.5,71864.0,5.43,-28.97,-27.67,0,*7C
1521810028.84,62172,11.5,71866.8,5.41,-28.15,-26.97,0,*79
1521810030.07,62173,11.5,71862.5,5.43,-28.37,-27.07,0,*72
1521810031.3,62174,11.5,71866.3,5.43,-28.69,-27.51,0,*7D
1521810032.53,62175,11.5,71864.3,5.45,-29.61,-28.63,0,*7D
1521810033.77,62176,11.5,71864.0,5.43,-30.33,-29.29,0,*78
1521810034.96,62177,11.5,71864.8,5.41,-30.45,-29.45,0,*70
1521810036.15,62178,11.5,71862.3,5.41,-30.23,-28.85,0,*72
1521810037.37,62179,11.5,71860.0,5.41,-30.45,-29.35,0,*79
1521810038.6,62180,11.5,71866.3,5.37,-29.79,-28.43,0,*79
1521810039.85,62181,11.5,71864.8,5.37,-28.09,-26.77,0,*77
1521810041.05,62182,11.5,71866.5,5.41,-27.51,-26.03,0,*74
1521810042.28,62183,11.5,71866.3,5.41,-28.15,-26.81,0,*70
1521810043.53,62184,11.5,71864.3,5.41,-28.21,-26.71,0,*7F
1521810044.73,62185,11.5,71864.0,5.41,-27.71,-26.39,0,*78
1521810046.0,62186,11.5,71862.3,5.43,-28.09,-26.77,0,*73
1521810047.26,62187,11.5,71862.3,5.43,-27.77,-26.33,0,*74
1521810048.48,62188,11.5,71862.3,5.43,-27.93,-26.49,0,*7C
1521810049.73,62189,11.5,71862.8,5.43,-28.53,-27.23,0,*73
1521810051.01,62190,11.5,71864.0,5.43,-28.25,-26.93,0,*70
1521810052.26,62191,11.5,71864.0,5.45,-28.63,-27.39,0,*74
1521810053.49,62192,11.5,71864.8,5.45,-29.83,-28.59,0,*71
1521810054.71,62193,11.5,71864.5,5.45,-32.45,-31.05,0,*71
1521810055.95,62194,11.5,71862.5,5.41,-30.39,-29.01,0,*76
1521810057.18,62195,11.5,71866.5,5.41,-29.01,-27.71,0,*7D
1521810058.38,62196,11.5,71866.3,5.41,-29.57,-28.37,0,*70
1521810059.6,62197,11.5,71866.3,5.37,-29.29,-27.89,0,*73
1521810060.81,62198,11.5,71866.5,5.41,-28.37,-27.03,0,*71
1521810062.06,62199,11.5,71864.5,5.41,-28.05,-26.71,0,*75
1521810063.28,62200,11.5,71864.3,5.41,-27.99,-26.49,0,*77
1521810064.52,62201,11.5,71866.3,5.41,-27.99,-26.71,0,*7D
1521810065.75,62202,11.5,71864.5,5.41,-28.21,-26.87,0,*7B
1521810067.0,62203,11.5,71860.5,5.43,-27.67,-26.33,0,*7A
1521810068.25,62204,11.5,71864.0,5.43,-28.15,-26.81,0,*7E
1521810069.45,62205,11.5,71866.0,5.45,-27.93,-26.61,0,*76
1521810070.65,62206,11.5,71862.5,5.45,-28.31,-27.07,0,*73
1521810071.89,62207,11.5,71862.8,5.49,-28.47,-27.19,0,*70
1521810073.13,62208,11.5,71866.0,5.49,-28.63,-27.19,0,*79
1521810074.36,62209,11.5,71864.0,5.49,-28.21,-26.87,0,*78
1521810075.59,62210,11.5,71862.5,5.51,-27.51,-26.03,0,*7D
1521810076.82,62211,11.5,71862.0,5.51,-27.55,-26.03,0,*78
1521810078.04,62212,11.5,71864.5,5.53,-27.51,-25.97,0,*73
1521810079.29,62213,11.5,71866.0,5.53,-27.45,-25.97,0,*77
1521810080.52,62214,11.5,71862.3,5.53,-27.45,-26.03,0,*7E
1521810081.73,62215,11.5,71862.3,5.53,-27.83,-26.45,0,*77
1521810083.01,62216,11.5,71860.8,5.57,-27.45,-25.97,0,*76
1521810084.27,62217,11.5,71864.0,5.59,-27.61,-25.97,0,*7F
1521810085.49,62218,11.5,71866.5,5.59,-27.45,-26.23,0,*7A
1521810086.69,62219,11.5,71864.3,5.59,-27.71,-26.39,0,*77
1521810087.89,62220,11.5,71862.8,5.63,-28.37,-27.07,0,*75
1521810089.14,62221,11.5,71866.5,5.61,-28.09,-26.87,0,*72
1521810090.38,62222,11.5,71864.8,5.61,-27.99,-26.65,0,*7B
1521810091.63,62223,11.5,71864.5,5.63,-28.59,-27.23,0,*78
1521810092.83,62224,11.5,71862.0,5.63,-28.37,-27.07,0,*71
1521810094.08,62225,11.5,71862.0,5.61,-29.23,-28.05,0,*7B
1521810095.32,62226,11.5,71862.3,5.61,-28.69,-27.23,0,*7C
1521810096.59,62227,11.5,71860.5,5.61,-28.09,-26.81,0,*72
1521810097.84,62228,11.5,71864.5,5.63,-28.05,-26.71,0,*7C
1521810099.06,62229,11.5,71866.0,5.63,-27.99,-26.65,0,*72
1521810100.33,62230,11.5,71866.5,5.61,-28.09,-26.81,0,*74
1521810101.53,62231,11.5,71862.3,5.63,-27.67,-26.23,0,*78
1521810102.76,62232,11.5,71866.3,5.63,-27.67,-26.33,0,*7A
1521810104.0,62233,11.5,71864.8,5.67,-28.47,-27.19,0,*7B
1521810105.25,62234,11.5,71864.5,5.69,-28.91,-27.55,0,*71
1521810106.47,62235,11.5,71866.8,5.67,-29.01,-27.67,0,*77
1521810107.69,62236,11.5,71866.0,5.67,-30.01,-28.69,0,*7D
1521810108.95,62237,11.5,71864.5,5.67,-29.89,-28.63,0,*7E
1521810110.22,62238,11.5,71866.0,5.61,-29.29,-28.25,0,*7F
1521810111.45,62239,11.5,71864.3,5.61,-30.61,-29.23,0,*7D
1521810112.68,62240,11.5,71862.5,5.61,-29.23,-27.89,0,*73
1521810113.92,62241,11.5,71860.5,5.61,-29.57,-28.43,0,*78
1521810115.12,62242,11.5,71866.8,5.59,-30.27,-28.97,0,*76
1521810116.39,62243,11.5,71864.0,5.57,-30.55,-29.51,0,*77
1521810117.66,62244,11.5,71864.3,5.57,-30.17,-28.91,0,*7B
1521810118.88,62245,11.5,71864.0,5.53,-30.45,-29.35,0,*76
1521810120.13,62246,11.5,71862.8,5.51,-30.27,-28.91,0,*7C
1521810121.36,62247,11.5,71864.0,5.51,-28.85,-27.51,0,*7F
1521810122.61,62248,11.5,71864.5,5.51,-29.01,-27.71,0,*7F
1521810123.86,62249,11.5,71862.8,5.53,-28.63,-27.19,0,*77
1521810125.08,62250,11.5,71862.3,5.53,-28.37,-26.97,0,*79
1521810126.27,62251,11.56,71868.0,5.53,-28.15,-26.65,0,*75
1521810127.5,62252,11.5,71864.3,5.57,-28.15,-27.03,0,*73
1521810128.75,62253,11.5,71864.3,5.57,-28.25,-27.03,0,*71
1521810129.97,62254,11.5,71864.3,5.59,-28.47,-27.07,0,*78
1521810131.21,62255,11.5,71864.5,5.59,-28.75,-27.45,0,*7E
1521810132.46,62256,11.5,71862.5,5.57,-29.13,-27.77,0,*73
1521810133.68,62257,11.5,71860.0,5.59,-28.43,-27.13,0,*7A
1521810134.93,62258,11.5,71864.8,5.59,-28.09,-26.93,0,*72
1521810136.15,62259,11.5,71866.3,5.59,-28.15,-26.93,0,*7E
1521810137.38,62260,11.5,71864.3,5.59,-28.25,-27.03,0,*7F
1521810138.6,62261,11.56,71868.3,5.59,-27.93,-26.55,0,*7E
1521810139.85,62262,11.5,71860.0,5.61,-27.67,-26.33,0,*7D
1521810141.08,62263,11.5,71864.0,5.63,-28.53,-27.19,0,*7F
1521810142.3,62264,11.5,71866.8,5.63,-28.09,-26.65,0,*7D
1521810143.5,62265,11.5,71866.5,5.63,-27.71,-26.39,0,*75
1521810144.72,62266,11.5,71864.0,5.63,-28.05,-26.65,0,*73
1521810145.97,62267,11.5,71866.3,5.69,-28.15,-26.77,0,*7A
1521810147.21,62268,11.5,71864.3,5.69,-27.89,-26.55,0,*7F
1521810148.42,62269,11.56,71870.3,5.67,-27.99,-26.49,0,*7C
1521810149.67,62270,11.56,71866.0,5.67,-28.25,-26.93,0,*7B
1521810150.94,62271,11.5,71864.3,5.69,-28.47,-27.23,0,*7A
1521810152.18,62272,11.5,71864.5,5.69,-29.13,-27.93,0,*72
1521810153.42,62273,11.56,71868.0,5.69,-29.01,-27.77,0,*7A
1521810154.65,62274,11.5,71862.3,5.67,-29.07,-28.05,0,*7F
1521810155.92,62275,11.5,71864.8,5.69,-29.17,-28.09,0,*7D
1521810157.14,62276,11.5,71866.0,5.67,-30.05,-28.85,0,*7F
1521810158.39,62277,11.5,71864.3,5.67,-29.51,-28.21,0,*79
1521810159.59,62278,11.5,71866.5,5.63,-29.07,-27.89,0,*7C
1521810160.84,62279,11.5,71864.3,5.63,-29.01,-27.83,0,*71
1521810162.1,62280,11.56,71868.0,5.63,-29.39,-28.25,0,*7F
1521810163.32,62281,11.5,71866.3,5.63,-30.67,-29.39,0,*71
1521810164.54,62282,11.5,71862.3,5.61,-29.61,-28.53,0,*73
1521810165.79,62283,11.5,71864.5,5.61,-29.61,-28.59,0,*78
1521810167.01,62284,11.5,71864.3,5.61,-29.79,-28.53,0,*7C
1521810168.23,62285,11.5,71862.3,5.61,-29.07,-27.89,0,*7C
1521810169.45,62286,11.5,71860.0,5.59,-29.95,-28.79,0,*7F
1521810170.69,62287,11.5,71866.8,5.59,-30.01,-28.75,0,*77
1521810171.93,62288,11.5,71866.8,5.59,-29.83,-28.63,0,*7D
1521810173.17,62289,11.5,71864.3,5.57,-30.01,-28.97,0,*7B
1521810174.44,62290,11.5,71864.8,5.57,-30.39,-29.35,0,*71
1521810175.69,62291,11.5,71860.8,5.57,-29.79,-28.63,0,*7E
1521810176.93,62292,11.5,71860.8,5.57,-30.27,-29.17,0,*7C
1521810178.14,62293,11.5,71866.5,5.53,-30.33,-29.29,0,*71
1521810179.36,62294,11.5,71860.5,5.53,-30.73,-29.57,0,*7B
1521810180.63,62295,11.5,71864.5,5.51,-30.51,-29.39,0,*70
1521810181.82,62296,11.56,71868.8,5.49,-30.83,-29.61,0,*78
1521810183.05,62297,11.5,71864.0,5.51,-30.83,-29.61,0,*70
1521810184.29,62298,11.56,71866.3,5.49,-30.73,-29.51,0,*7A
1521810185.49,62299,11.56,71866.3,5.45,-30.83,-29.61,0,*7B
1521810186.72,62300,11.56,71864.3,5.45,-30.83,-29.51,0,*79
1521810187.99,62301,11.5,71866.3,5.43,-30.73,-29.39,0,*7F
1521810189.21,62302,11.5,71866.3,5.41,-30.61,-29.45,0,*76
1521810190.43,62303,11.56,71866.8,5.41,-31.33,-30.05,0,*7D
1521810191.65,62304,11.5,71862.3,5.41,-30.77,-29.57,0,*74
1521810192.86,62305,11.5,71866.8,5.41,-30.39,-29.07,0,*7A
1521810194.05,62306,11.56,71864.0,5.41,-30.45,-29.23,0,*74
1521810195.28,62307,11.5,71866.0,5.41,-30.55,-29.39,0,*7F
1521810196.53,62308,11.5,71864.8,5.37,-30.61,-29.29,0,*77
1521810197.74,62309,11.5,71866.3,5.37,-30.45,-29.29,0,*70
1521810198.96,62310,11.5,71864.0,5.37,-30.33,-28.91,0,*7B
1521810200.18,62311,11.56,71864.0,5.41,-31.11,-29.79,0,*7D
1521810201.41,62312,11.5,71864.3,5.37,-30.83,-29.51,0,*7F
1521810202.63,62313,11.5,71862.8,5.37,-30.17,-28.97,0,*78
1521810203.85,62314,11.5,71862.0,5.37,-30.11,-28.75,0,*75
1521810205.1,62315,11.56,71864.8,5.35,-30.55,-29.45,0,*74
1521810206.38,62316,11.56,71866.0,5.35,-30.73,-29.35,0,*74
1521810207.61,62317,11.56,71864.0,5.35,-29.83,-28.53,0,*73
1521810208.84,62318,11.56,71864.3,5.35,-28.97,-27.51,0,*75
1521810210.06,62319,11.56,71862.8,5.37,-28.97,-27.45,0,*73
1521810211.29,62320,11.56,71866.3,5.37,-28.91,-27.55,0,*7E
1521810212.52,62321,11.56,71864.8,5.41,-29.23,-28.05,0,*7C
1521810213.72,62322,11.56,71862.5,5.37,-28.97,-27.71,0,*7C
1521810214.92,62323,11.5,71864.3,5.41,-28.37,-27.03,0,*73
1521810216.18,62324,11.56,71866.0,5.41,-29.35,-27.99,0,*74
1521810217.4,62325,11.56,71864.5,5.41,-29.01,-27.55,0,*72
1521810218.61,62326,11.56,71866.3,5.41,-29.57,-28.37,0,*79
1521810219.83,62327,11.56,71864.5,5.41,-29.89,-28.53,0,*79
1521810221.05,62328,11.5,71862.8,5.45,-30.23,-29.01,0,*7C
1521810222.25,62329,11.56,71864.3,5.41,-29.79,-28.53,0,*78
1521810223.5,62330,11.56,71866.5,5.41,-29.89,-28.75,0,*7B
1521810224.71,62331,11.56,71864.0,5.41,-30.23,-29.13,0,*73
1521810225.91,62332,11.5,71862.8,5.41,-29.95,-28.69,0,*79
1521810227.15,62333,11.56,71866.0,5.41,-30.05,-28.75,0,*74
1521810228.4,62334,11.56,71864.0,5.43,-28.63,-27.29,0,*7E
1521810229.63,62335,11.56,71864.8,5.41,-29.89,-28.69,0,*73
1521810230.88,62336,11.56,71864.8,5.43,-30.01,-28.85,0,*78
1521810232.08,62337,11.5,71860.5,5.41,-30.83,-29.57,0,*7F
1521810233.28,62338,11.56,71866.8,5.41,-30.27,-29.07,0,*7B
1521810234.5,62339,11.5,71866.0,5.41,-30.05,-28.85,0,*71
1521810235.74,62340,11.56,71864.8,5.41,-30.95,-29.73,0,*7E
1521810236.94,62341,11.56,71866.0,5.41,-31.33,-30.11,0,*7E
1521810238.17,62342,11.5,71862.8,5.37,-31.79,-30.61,0,*75
1521810239.37,62343,11.56,71866.5,5.37,-32.39,-31.33,0,*75
1521810240.62,62344,11.56,71864.0,5.33,-31.61,-30.39,0,*73
1521810241.84,62345,11.56,71864.3,5.33,-32.13,-30.95,0,*72
1521810243.09,62346,11.56,71866.5,5.33,-30.89,-29.73,0,*70
1521810244.3,62347,11.56,71864.0,5.33,-30.05,-28.97,0,*7E
1521810245.53,62348,11.56,71866.0,5.31,-29.79,-28.69,0,*71
1521810246.78,62349,11.56,71866.0,5.31,-30.05,-28.85,0,*71
1521810248.01,62350,11.5,71864.8,5.33,-29.67,-28.63,0,*7F
1521810249.28,62351,11.56,71866.0,5.35,-30.01,-28.79,0,*7B
1521810250.51,62352,11.56,71866.5,5.35,-28.69,-27.29,0,*75
1521810251.79,62353,11.56,71866.0,5.35,-29.13,-27.99,0,*73
1521810253.02,62354,11.56,71866.8,5.35,-28.69,-27.29,0,*73
1521810254.3,62355,11.56,71866.0,5.35,-29.13,-28.05,0,*7F
1521810255.53,62356,11.56,71866.5,5.41,-28.53,-27.19,0,*78
1521810256.75,62357,11.56,71864.8,5.41,-28.21,-26.87,0,*7A
1521810257.95,62358,11.56,71868.3,5.37,-28.97,-27.55,0,*77
1521810259.21,62359,11.5,71862.8,5.41,-29.35,-27.99,0,*7E
1521810260.46,62360,11.56,71866.8,5.41,-28.43,-26.97,0,*7B
1521810261.68,62361,11.56,71864.0,5.43,-28.15,-26.65,0,*76
1521810262.93,62362,11.56,71864.5,5.43,-29.17,-27.93,0,*7E
1521810264.17,62363,11.56,71866.0,5.43,-28.47,-27.07,0,*76
1521810265.4,62364,11.56,71866.5,5.45,-28.43,-27.07,0,*73
1521810266.62,62365,11.56,71864.8,5.45,-28.97,-27.61,0,*7B
1521810267.84,62366,11.56,71866.8,5.49,-28.91,-27.55,0,*75
1521810269.04,62367,11.56,71864.8,5.49,-27.77,-26.39,0,*78
1521810270.26,62368,11.56,71866.3,5.51,-27.89,-26.49,0,*78
1521810271.51,62369,11.56,71866.0,5.51,-27.99,-26.65,0,*76
1521810272.72,62370,11.56,71864.8,5.53,-27.83,-26.49,0,*79
1521810273.94,62371,11.56,71866.5,5.53,-27.77,-26.33,0,*7E
1521810275.16,62372,11.56,71864.5,5.53,-27.83,-26.61,0,*71
1521810276.38,62373,11.56,71866.0,5.57,-27.89,-26.45,0,*78
1521810277.64,62374,11.56,71866.0,5.59,-27.61,-26.13,0,*74
1521810278.86,62375,11.56,71868.0,5.63,-27.51,-26.17,0,*7B
1521810280.08,62376,11.56,71868.3,5.63,-28.05,-26.49,0,*7D
1521810281.31,62377,11.56,71864.3,5.63,-28.25,-27.03,0,*71
1521810282.53,62378,11.56,71866.0,5.63,-29.07,-27.99,0,*7C
1521810283.77,62379,11.56,71864.3,5.61,-30.33,-29.13,0,*7C
1521810284.98,62380,11.56,71866.8,5.63,-29.95,-28.75,0,*7D
1521810286.18,62381,11.56,71866.0,5.63,-29.61,-28.69,0,*7A
1521810287.43,62382,11.56,71864.0,5.61,-29.79,-28.59,0,*71
1521810288.67,62383,11.56,71866.0,5.63,-29.73,-28.59,0,*78
1521810289.88,62384,11.56,71866.8,5.61,-30.45,-29.23,0,*7C
1521810291.12,62385,11.56,71866.8,5.59,-32.97,-31.73,0,*77
1521810292.4,62386,11.56,71862.0,5.57,-31.39,-30.17,0,*7E
1521810293.65,62387,11.56,71866.3,5.53,-31.61,-30.39,0,*7A
1521810294.93,62388,11.56,71864.0,5.51,-32.19,-30.61,0,*76
1521810296.15,62389,11.56,71868.8,5.51,-30.83,-29.61,0,*7E
1521810297.4,62390,11.56,71866.3,5.49,-30.51,-29.35,0,*71
1521810298.63,62391,11.56,71870.0,5.45,-29.45,-28.25,0,*71
1521810299.85,62392,11.56,71868.8,5.45,-29.67,-28.43,0,*72
1521810301.11,62393,11.56,71866.3,5.45,-29.35,-28.21,0,*70
1521810302.35,62394,11.56,71866.3,5.49,-28.75,-27.39,0,*78
1521810303.59,62395,11.56,71866.5,5.49,-28.47,-27.19,0,*7A
1521810304.84,62396,11.56,71868.0,5.51,-28.69,-27.23,0,*75
1521810306.06,62397,11.56,71864.3,5.53,-28.09,-26.65,0,*73
1521810307.29,62398,11.56,71864.8,5.51,-28.37,-27.03,0,*72
1521810308.5,62399,11.56,71864.5,5.53,-28.69,-27.45,0,*78
1521810309.78,62400,11.56,71868.0,5.57,-28.59,-27.23,0,*78
1521810311.05,62401,11.56,71868.0,5.57,-28.09,-26.71,0,*7A
1521810312.27,62402,11.56,71866.5,5.59,-28.43,-27.03,0,*7D
1521810313.49,62403,11.56,71868.0,5.59,-28.47,-27.07,0,*7C
1521810314.69,62404,11.56,71868.5,5.59,-28.31,-27.07,0,*7A
1521810315.92,62405,11.56,71864.8,5.59,-28.63,-27.29,0,*70
1521810317.17,62406,11.56,71864.8,5.61,-28.85,-27.39,0,*71
1521810318.42,62407,11.56,71864.0,5.61,-28.91,-27.71,0,*79
1521810319.67,62408,11.56,71864.3,5.61,-29.07,-27.83,0,*75
1521810320.92,62409,11.56,71864.0,5.61,-29.01,-27.67,0,*78
1521810322.14,62410,11.56,71864.5,5.61,-29.07,-27.89,0,*76
1521810323.39,62411,11.56,71866.5,5.61,-29.23,-28.09,0,*76
1521810324.63,62412,11.56,71864.0,5.63,-29.29,-28.09,0,*7D
1521810325.88,62413,11.56,71866.8,5.67,-29.01,-27.83,0,*7F
1521810327.1,62414,11.56,71866.5,5.63,-29.01,-27.71,0,*71
1521810328.33,62415,11.56,71864.5,5.63,-28.91,-27.55,0,*7E
1521810329.58,62416,11.56,71868.8,5.61,-29.01,-27.67,0,*76
1521810330.8,62417,11.56,71864.8,5.61,-31.33,-30.23,0,*79
1521810332.05,62418,11.56,71864.5,5.59,-33.73,-32.63,0,*7D
1521810333.28,62419,11.56,71866.0,5.51,-34.89,-33.67,0,*73
1521810334.5,62420,11.56,71860.5,5.49,-34.31,-33.15,0,*76
1521810335.78,62421,11.56,71868.3,5.43,-33.43,-32.19,0,*72
1521810337.02,62422,11.56,71866.5,5.41,-31.73,-30.39,0,*72
1521810338.23,62423,11.56,71864.8,5.41,-30.55,-29.23,0,*75
1521810339.43,62424,11.56,71866.3,5.41,-30.23,-28.85,0,*7E
1521810340.69,62425,11.56,71866.3,5.41,-29.39,-27.99,0,*7E
1521810341.91,62426,11.56,71866.3,5.37,-29.29,-27.93,0,*77
1521810343.11,62427,11.56,71866.0,5.41,-29.23,-27.89,0,*76
1521810344.34,62428,11.56,71864.0,5.41,-29.45,-28.21,0,*74
1521810345.57,62429,11.56,71862.8,5.41,-29.23,-27.83,0,*72
1521810346.77,62430,11.56,71864.3,5.41,-29.07,-27.71,0,*71
1521810348.05,62431,11.56,71864.0,5.43,-29.01,-27.61,0,*75
1521810349.27,62432,11.56,71866.8,5.41,-29.01,-27.71,0,*75
1521810350.53,62433,11.56,71866.5,5.43,-29.17,-27.67,0,*76
1521810351.8,62434,11.56,71862.8,5.43,-31.23,-29.73,0,*74
1521810353.05,62435,11.56,71866.5,5.43,-32.35,-31.11,0,*7C
1521810354.3,62436,11.56,71866.8,5.37,-32.75,-31.39,0,*72
1521810355.55,62437,11.56,71866.5,5.37,-30.01,-28.63,0,*75
1521810356.77,62438,11.56,71864.3,5.37,-30.61,-29.23,0,*79
1521810357.97,62439,11.56,71866.8,5.37,-29.67,-28.37,0,*72
1521810359.21,62440,11.56,71864.8,5.37,-30.01,-28.79,0,*7E
1521810360.46,62441,11.56,71866.8,5.35,-30.05,-28.69,0,*78
1521810361.72,62442,11.56,71864.8,5.35,-30.67,-29.51,0,*75
1521810362.97,62443,11.56,71862.8,5.35,-30.89,-28.97,0,*7F
1521810364.25,62444,11.56,71866.0,5.35,-29.13,-27.61,0,*75
1521810365.53,62445,11.56,71864.8,5.35,-29.51,-28.09,0,*73
1521810366.81,62446,11.56,71866.8,5.35,-30.51,-29.01,0,*71
1521810368.06,62447,11.56,71864.8,5.35,-29.45,-28.09,0,*74
1521810369.31,62448,11.56,71866.0,5.35,-29.13,-27.77,0,*7E
1521810370.53,62449,11.56,71866.3,5.37,-28.97,-27.45,0,*71
1521810371.78,62450,11.56,71864.0,5.37,-28.47,-27.19,0,*7D
1521810373.01,62451,11.56,71866.8,5.37,-29.39,-27.93,0,*76
1521810374.26,62452,11.56,71862.8,5.41,-28.91,-27.23,0,*7C
1521810375.47,62453,11.56,71860.8,5.41,-28.37,-27.03,0,*73
1521810376.69,62454,11.56,71866.0,5.41,-28.91,-27.71,0,*7D
1521810377.92,62455,11.56,71864.8,5.41,-28.69,-27.19,0,*75
1521810379.11,62456,11.56,71866.5,5.41,-29.07,-27.71,0,*71
1521810380.39,62457,11.56,71864.0,5.43,-30.01,-28.63,0,*70
1521810381.64,62458,11.56,71866.8,5.43,-29.13,-27.77,0,*7E
1521810382.84,62459,11.56,71864.3,5.41,-28.69,-27.29,0,*7A
1521810384.12,62460,11.56,71866.0,5.43,-28.25,-26.93,0,*7A
1521810385.35,62461,11.56,71862.0,5.43,-28.97,-27.67,0,*78
1521810386.59,62462,11.56,71864.8,5.45,-28.79,-27.23,0,*7D
1521810387.84,62463,11.56,71866.5,5.45,-28.79,-27.39,0,*77
1521810389.1,62464,11.56,71866.3,5.43,-29.89,-28.69,0,*72
1521810390.36,62465,11.56,71864.3,5.43,-30.05,-28.79,0,*7E
1521810391.56,62466,11.56,71864.0,5.45,-29.23,-27.89,0,*77
1521810392.79,62467,11.56,71866.0,5.41,-30.27,-29.01,0,*70
1521810394.03,62468,11.56,71862.8,5.43,-30.01,-28.69,0,*76
1521810395.23,62469,11.56,71860.0,5.41,-28.85,-27.51,0,*74
1521810396.44,62470,11.56,71866.3,5.41,-29.45,-28.15,0,*7E
1521810397.73,62471,11.56,71862.3,5.43,-29.35,-27.99,0,*71
1521810398.98,62472,11.56,71864.8,5.43,-29.89,-28.53,0,*7C
1521810400.23,62473,11.56,71866.5,5.43,-29.67,-28.47,0,*78
1521810401.46,62474,11.56,71862.5,5.43,-29.67,-28.37,0,*78
1521810402.72,62475,11.56,71866.3,5.43,-29.01,-27.67,0,*73
1521810403.94,62476,11.56,71864.8,5.41,-29.01,-27.55,0,*73
1521810405.19,62477,11.56,71862.5,5.43,-27.99,-26.61,0,*79
1521810406.45,62478,11.56,71864.3,5.45,-29.35,-28.21,0,*72
1521810407.71,62479,11.56,71866.0,5.43,-29.01,-27.67,0,*7F
1521810408.91,62480,11.56,71862.3,5.45,-29.67,-28.31,0,*73
1521810410.12,62481,11.56,71866.3,5.45,-29.61,-28.31,0,*74
1521810411.31,62482,11.56,71864.8,5.45,-29.07,-27.71,0,*7C
1521810412.54,62483,11.56,71866.3,5.45,-28.75,-27.29,0,*74
1521810413.77,62484,11.56,71864.8,5.43,-28.69,-27.29,0,*78
1521810415.0,62485,11.56,71866.5,5.45,-28.05,-26.61,0,*78
1521810416.24,62486,11.56,71866.3,5.49,-28.59,-27.19,0,*70
1521810417.49,62487,11.56,71866.0,5.49,-28.25,-26.77,0,*73
1521810418.72,62488,11.56,71866.0,5.45,-28.05,-26.61,0,*75
1521810419.99,62489,11.56,71866.5,5.51,-27.99,-26.55,0,*7C
1521810421.26,62490,11.56,71864.5,5.51,-28.59,-27.23,0,*77
1521810422.51,62491,11.56,71866.3,5.51,-29.17,-27.71,0,*7A
1521810423.7,62492,11.56,71864.0,5.53,-28.97,-27.51,0,*70
1521810424.93,62493,11.56,71868.3,5.53,-29.67,-28.47,0,*77
1521810426.13,62494,11.56,71864.8,5.53,-30.23,-28.79,0,*75
1521810427.42,62495,11.56,71866.3,5.51,-31.11,-29.89,0,*78
1521810428.67,62496,11.56,71866.8,5.49,-30.17,-28.63,0,*70
1521810429.91,62497,11.56,71866.3,5.49,-28.63,-27.19,0,*79
1521810431.15,62498,11.56,71866.0,5.49,-28.47,-27.23,0,*79
1521810432.38,62499,11.56,71866.8,5.49,-28.79,-27.29,0,*7F
1521810433.62,62500,11.56,71864.0,5.51,-29.79,-28.43,0,*75
1521810434.84,62501,11.56,71866.8,5.49,-28.97,-27.45,0,*75
1521810436.09,62502,11.56,71866.8,5.49,-28.91,-27.61,0,*76
1521810437.31,62503,11.56,71864.8,5.49,-29.79,-28.43,0,*7F
1521810438.54,62504,11.56,71868.3,5.49,-29.45,-28.25,0,*77
1521810439.79,62505,11.56,71866.0,5.51,-31.57,-30.27,0,*7E
1521810441.01,62506,11.56,71864.8,5.45,-29.95,-28.75,0,*71
1521810442.22,62507,11.56,71868.0,5.49,-30.17,-29.23,0,*7C
1521810443.45,62508,11.56,71866.0,5.45,-29.95,-28.59,0,*71
1521810444.65,62509,11.56,71868.8,5.49,-29.23,-27.89,0,*73
1521810445.89,62510,11.56,71866.8,5.45,-28.79,-27.45,0,*79
1521810447.12,62511,11.56,71866.3,5.45,-28.43,-27.03,0,*73
1521810448.34,62512,11.56,71864.5,5.49,-28.79,-27.29,0,*7D
1521810449.59,62513,11.56,71866.5,5.49,-28.05,-26.77,0,*7D
1521810450.83,62514,11.56,71864.0,5.49,-30.01,-28.75,0,*7B
1521810452.1,62515,11.56,71864.8,5.51,-30.05,-28.59,0,*79
1521810453.32,62516,11.56,71866.0,5.45,-29.13,-27.77,0,*73
1521810454.51,62517,11.56,71868.8,5.49,-28.97,-27.55,0,*73
1521810455.71,62518,11.56,71868.3,5.49,-27.93,-26.45,0,*77
1521810456.95,62519,11.56,71864.5,5.49,-28.59,-27.19,0,*77
1521810458.14,62520,11.56,71866.3,5.53,-28.97,-27.51,0,*78
1521810459.37,62521,11.56,71868.5,5.53,-28.85,-27.39,0,*74
1521810460.62,62522,11.56,71866.8,5.51,-28.85,-27.39,0,*75
1521810461.87,62523,11.56,71864.5,5.53,-28.63,-27.19,0,*7C
1521810463.06,62524,11.56,71866.0,5.53,-28.15,-26.61,0,*74
1521810464.28,62525,11.56,71866.3,5.53,-28.31,-26.81,0,*7D
1521810465.55,62526,11.56,71864.0,5.57,-28.63,-27.23,0,*74
1521810466.77,62527,11.56,71864.5,5.59,-28.15,-26.71,0,*7C
1521810468.02,62528,11.56,71866.3,5.57,-28.59,-27.13,0,*70
1521810469.27,62529,11.56,71868.3,5.59,-28.63,-27.23,0,*75
1521810470.49,62530,11.63,71870.5,5.59,-28.63,-27.13,0,*7E
1521810471.72,62531,11.56,71866.8,5.63,-28.09,-26.65,0,*7A
1521810472.93,62532,11.56,71868.3,5.61,-27.89,-26.49,0,*72
1521810474.16,62533,11.56,71868.3,5.63,-27.71,-26.33,0,*7B
1521810475.38,62534,11.63,71868.8,5.63,-27.89,-26.33,0,*7B
1521810476.6,62535,11.56,71866.5,5.67,-27.99,-26.61,0,*78
1521810477.85,62536,11.56,71864.0,5.67,-28.21,-26.81,0,*79
1521810479.07,62537,11.56,71866.5,5.69,-27.71,-26.23,0,*74
1521810480.28,62538,11.63,71868.3,5.69,-28.97,-27.71,0,*7A
1521810481.53,62539,11.63,71870.3,5.67,-28.63,-27.19,0,*70
1521810482.8,62540,11.56,71864.5,5.69,-28.75,-27.39,0,*75
1521810484.05,62541,11.63,71870.5,5.67,-28.21,-26.81,0,*79
1521810485.3,62542,11.63,71868.0,5.69,-29.13,-27.89,0,*7D
1521810486.54,62543,11.56,71864.3,5.67,-28.47,-26.97,0,*7C
1521810487.8,62544,11.56,71864.3,5.69,-27.99,-26.71,0,*71
1521810489.05,62545,11.56,71866.3,5.69,-28.43,-27.07,0,*78
1521810490.27,62546,11.56,71864.0,5.71,-28.79,-27.29,0,*77
1521810491.52,62547,11.56,71864.8,5.71,-28.09,-26.77,0,*7B
1521810492.73,62548,11.56,71864.5,5.71,-28.47,-27.13,0,*7D
1521810493.98,62549,11.56,71864.0,5.73,-28.37,-26.81,0,*73
1521810495.22,62550,11.56,71864.3,5.71,-28.79,-27.39,0,*71
1521810496.46,62551,11.56,71866.0,5.71,-28.75,-27.39,0,*7C
1521810497.71,62552,11.56,71866.3,5.71,-28.79,-27.39,0,*73
1521810498.92,62553,11.56,71866.0,5.71,-29.13,-27.55,0,*75
1521810500.13,62554,11.56,71864.8,5.71,-30.11,-28.79,0,*79
1521810501.38,62555,11.63,71866.0,5.73,-32.39,-31.23,0,*75
1521810502.6,62556,11.56,71864.8,5.67,-32.29,-31.05,0,*76
1521810503.81,62557,11.56,71866.3,5.67,-30.61,-29.23,0,*74
1521810505.01,62558,11.56,71860.3,5.63,-29.95,-28.53,0,*7A